This is the latest recevied weather packets stored in our database for station/object KO5MO-10. If no packets are shown the sender has not sent any weather packets the latest 10 day(s).
| Time | Temp. | Humidity | Pressure | Rain* | Wind** | Luminosity | Snow |
|---|---|---|---|---|---|---|---|
| 1777875077 | 25° C | 29% | 1005.7 hPa | - | - | - | - |
| 1777874177 | 25.56° C | 28% | 1005.9 hPa | - | - | - | - |
| 1777873277 | 25.56° C | 26% | 1006.2 hPa | - | - | - | - |
| 1777872377 | 25.56° C | 24% | 1006.1 hPa | - | - | - | - |
| 1777871477 | 26.11° C | 24% | 1006 hPa | - | - | - | - |
| 1777870576 | 26.11° C | 23% | 1006 hPa | - | - | - | - |
| 1777869676 | 26.11° C | 22% | 1005.9 hPa | - | - | - | - |
| 1777868776 | 26.67° C | 22% | 1005.9 hPa | - | - | - | - |
| 1777867876 | 26.67° C | 21% | 1005.5 hPa | - | - | - | - |
| 1777866976 | 27.22° C | 20% | 1005.2 hPa | - | - | - | - |
| 1777866076 | 27.22° C | 20% | 1004.9 hPa | - | - | - | - |
| 1777865175 | 27.78° C | 19% | 1004.4 hPa | - | - | - | - |
| 1777864275 | 28.33° C | 18% | 1004.2 hPa | - | - | - | - |
| 1777863375 | 28.89° C | 17% | 1003.7 hPa | - | - | - | - |
| 1777862475 | 28.89° C | 16% | 1003.5 hPa | - | - | - | - |
| 1777861575 | 29.44° C | 15% | 1003 hPa | - | - | - | - |
| 1777860674 | 30° C | 16% | 1002.8 hPa | - | - | - | - |
| 1777859774 | 30° C | 18% | 1002.7 hPa | - | - | - | - |
| 1777858874 | 31.11° C | 17% | 1002.5 hPa | - | - | - | - |
| 1777857974 | 31.67° C | 16% | 1002.4 hPa | - | - | - | - |
| 1777857074 | 33.33° C | 14% | 1002.4 hPa | - | - | - | - |
| 1777856174 | 34.44° C | 14% | 1002.5 hPa | - | - | - | - |
| 1777855273 | 35° C | 13% | 1002.5 hPa | - | - | - | - |
| 1777854373 | 35° C | 13% | 1002.4 hPa | - | - | - | - |
| 1777853473 | 35.56° C | 13% | 1002.2 hPa | - | - | - | - |
* Rain since midnight (hover to see other rain measurements)
** Current wind speed in m/s (hover to see current wind gust speed)